GFSSGP_sfc_rhum_096.txt.gz
RH
53 38 57 72 88 77 55 41 33 33 31 20 18 22 24 36 48 88 66 46 52 52 57 71 78 74 71 73 70 70 74 72 71 70 71 69 73 73 69 67 66 68 69 70 71 72 74 70 71
49 33 62 77 84 61 47 30 33 31 24 20 19 23 21 46 48 62 58 43 44 52 52 68 75 74 72 73 67 65 66 67 68 68 68 68 65 64 63 62 63 66 68 68 70 74 74 72 73
48 36 70 76 60 58 44 31 29 25 22 23 24 22 22 47 50 52 43 38 39 47 50 63 75 72 72 69 63 62 62 63 63 65 65 64 64 64 64 65 66 65 63 66 72 76 76 76 75
47 59 57 69 58 40 34 26 30 27 23 21 20 25 32 34 40 42 38 36 38 51 62 73 72 70 67 64 62 63 64 63 62 63 63 64 62 64 65 69 67 65 65 71 71 76 78 75 75
46 59 82 58 46 35 27 27 32 30 26 23 22 27 39 35 38 37 38 35 38 62 64 68 70 68 65 64 64 66 68 67 68 68 68 70 70 68 69 68 66 64 64 71 74 74 74 75 76
61 57 70 64 47 31 25 23 66 42 25 23 23 34 42 38 40 39 36 37 36 56 57 64 70 69 67 66 67 68 69 70 73 74 77 71 68 68 67 68 66 64 63 65 69 71 73 71 68
60 62 61 52 46 36 28 25 34 33 29 24 22 34 44 40 40 36 36 33 38 44 55 60 66 70 72 71 69 71 76 76 76 74 69 68 67 66 65 65 65 64 62 61 61 62 62 60 56
54 60 61 55 50 45 28 45 65 48 37 30 28 41 52 38 37 35 34 34 37 40 44 52 61 65 70 73 76 76 77 77 72 69 70 69 66 64 63 62 60 57 56 55 52 49 46 43 40
44 65 62 56 49 41 27 30 55 65 41 34 35 29 32 36 35 36 36 37 38 37 38 42 51 54 62 70 77 79 79 77 72 72 73 69 72 64 64 60 57 53 49 45 39 37 43 42 46
46 61 55 36 33 34 28 29 38 68 50 35 39 30 33 36 37 40 40 41 40 38 37 39 42 50 56 57 80 85 76 77 67 67 75 66 62 60 59 60 51 46 43 37 32 28 38 40 31
34 48 34 28 23 23 26 30 36 61 46 35 38 36 39 38 39 40 39 38 38 37 37 37 39 46 50 60 68 71 69 59 53 53 49 50 59 63 64 73 55 58 48 40 35 32 33 30 32
25 21 20 23 20 21 23 28 34 77 83 46 40 32 38 39 39 40 39 36 36 38 38 36 37 42 48 56 61 61 52 46 46 43 37 45 51 41 48 50 43 42 39 34 35 38 32 27 23
17 16 15 14 16 19 20 27 33 36 38 41 35 46 40 39 38 38 36 34 34 39 40 39 39 47 51 54 60 59 48 43 41 36 30 34 37 33 38 37 42 37 39 37 38 36 33 30 27
18 18 17 17 19 17 19 25 26 29 32 40 40 42 40 39 38 38 42 35 34 38 39 39 41 45 62 72 66 57 52 44 44 42 33 27 35 33 36 38 39 39 37 34 34 33 35 33 31
19 22 21 19 18 24 19 23 28 23 21 38 44 39 40 39 38 36 44 44 35 37 39 41 47 53 60 80 71 75 55 47 46 41 28 28 32 30 35 38 37 34 34 31 33 31 36 38 36
26 23 29 20 18 16 20 32 22 23 23 26 37 37 38 36 37 35 40 47 44 36 39 45 52 74 76 79 86 77 58 52 43 35 32 26 27 31 36 40 44 38 39 40 42 43 44 43 41
28 31 25 21 14 16 17 24 24 19 21 25 31 35 33 35 36 34 46 54 54 50 40 59 68 92 90 89 90 83 69 57 45 37 36 29 29 30 37 40 40 39 43 44 40 43 43 50 49
32 30 26 26 18 14 19 20 19 22 18 23 31 34 35 34 40 54 50 61 54 57 40 66 78 95 94 92 85 72 65 60 47 40 38 30 36 32 39 45 40 40 47 49 43 42 45 47 48
33 32 34 25 19 20 20 18 19 22 28 29 32 31 35 38 42 60 58 68 68 50 47 78 88 95 94 92 90 82 64 49 44 43 32 32 35 35 41 45 40 45 49 50 45 50 46 54 55
38 37 35 25 20 19 19 18 16 24 30 30 41 40 48 42 40 53 56 46 46 69 68 86 91 93 91 89 94 92 44 44 44 48 38 36 36 36 39 45 46 47 52 50 51 54 60 65 55
38 36 36 30 24 22 22 23 20 19 24 34 37 36 37 42 35 43 56 52 62 74 69 85 94 92 91 89 75 53 43 48 51 47 47 39 36 38 37 41 46 45 53 59 60 57 61 68 65
52 35 30 38 41 41 23 37 25 25 24 30 38 44 56 47 42 41 58 61 80 81 60 84 90 90 89 81 66 51 51 48 52 51 50 44 37 38 38 38 40 44 56 54 53 51 59 65 69
48 50 50 46 39 38 36 53 38 38 29 39 39 41 44 49 59 52 53 56 66 63 65 85 92 90 84 80 68 56 52 51 50 44 46 45 42 38 38 38 40 43 49 50 51 54 57 60 63
37 49 60 61 60 68 42 68 74 44 31 38 43 39 44 44 56 57 54 48 50 64 70 86 92 89 86 82 68 66 65 46 43 47 44 51 51 47 38 38 44 48 56 59 61 58 56 60 61
48 71 94 92 88 71 68 80 69 56 52 36 47 70 43 46 57 54 57 68 71 77 82 79 88 89 85 72 60 64 52 38 40 41 44 45 52 56 49 47 49 58 58 54 56 58 60 61 63
55 72 91 97 98 98 86 97 86 76 56 35 39 38 50 52 44 49 63 71 73 71 81 82 79 75 71 57 62 59 47 50 42 40 42 46 55 60 53 49 46 44 47 48 50 58 60 57 57
53 81 79 99 97 98 98 79 70 61 35 39 46 51 57 47 45 51 56 59 67 74 75 75 61 58 53 49 50 44 42 42 46 42 45 53 54 47 47 45 42 40 40 41 45 53 51 50 52
53 68 92 98 99 96 62 32 34 33 35 34 38 42 42 40 42 48 54 63 69 74 68 56 46 44 40 38 40 43 44 46 42 42 44 48 45 45 45 43 42 42 41 41 44 53 50 48 52
50 48 67 85 94 99 59 39 24 33 32 36 39 40 40 41 43 47 51 49 53 48 41 40 38 38 40 44 49 38 40 35 34 42 44 46 44 42 40 38 39 40 41 40 42 43 42 45 47
35 37 42 88 81 96 96 48 24 29 31 36 39 52 49 43 44 44 45 45 44 41 34 34 33 35 42 38 34 34 34 37 39 39 40 39 41 40 38 38 39 38 38 41 44 46 44 46 48

GFSSGP_sfc_rhum_102.txt.gz
RH
68 59 87 96 85 95 92 74 55 48 37 26 27 33 45 69 54 55 86 76 77 87 80 79 80 74 71 75 76 75 76 77 76 74 73 71 71 70 70 68 68 69 70 72 70 69 70 71 71
71 58 80 95 93 92 77 73 57 50 36 28 39 52 59 78 72 90 87 74 79 81 80 81 78 76 73 75 74 74 74 75 71 69 69 67 65 65 65 65 66 69 72 74 73 72 72 72 69
62 58 87 94 96 91 73 56 47 37 28 26 30 44 61 77 71 81 73 71 80 82 82 79 78 73 72 72 72 72 71 70 70 65 64 65 64 65 65 65 67 69 75 76 76 75 74 67 70
63 74 78 95 93 80 59 50 44 42 32 39 32 49 57 63 65 70 62 72 86 89 86 82 76 69 70 68 67 66 67 66 64 66 65 64 67 67 68 70 70 69 75 75 76 76 71 63 74
63 86 94 97 88 74 58 49 39 46 48 48 38 52 67 65 60 62 64 65 84 90 86 78 75 70 66 64 65 65 65 65 66 66 68 74 70 70 69 71 72 72 72 71 73 70 66 58 62
66 77 98 94 72 59 56 46 50 59 58 55 60 56 68 62 66 65 62 64 76 86 79 73 72 68 66 66 66 66 67 68 68 74 72 70 71 71 69 69 71 72 72 71 69 65 58 52 59
69 89 93 89 78 65 52 59 59 71 66 71 67 59 66 67 57 65 67 72 76 78 76 73 69 68 73 71 72 72 72 77 77 74 72 70 69 71 70 68 66 65 63 60 56 54 48 46 55
69 75 86 85 74 69 47 59 64 62 67 68 55 61 68 62 61 70 73 77 80 78 77 90 83 77 82 76 78 76 77 77 76 73 72 73 72 70 68 65 62 58 52 46 43 46 43 50 52
56 78 93 78 69 61 49 49 62 63 58 61 59 60 50 48 60 75 80 84 83 81 89 91 93 92 90 90 82 80 78 76 76 74 74 77 83 77 72 61 53 47 45 45 44 42 45 51 52
56 84 73 56 52 53 38 34 61 66 68 68 66 54 47 49 58 76 82 90 86 90 89 92 93 92 89 80 95 93 78 87 89 88 83 80 81 77 66 60 50 42 42 43 40 42 44 42 44
42 61 53 45 40 38 32 30 35 68 77 71 71 61 66 69 52 68 72 76 77 82 82 85 87 86 85 91 97 98 96 92 88 79 77 78 80 81 74 70 66 62 49 42 40 39 37 34 39
35 26 26 41 38 37 35 24 45 66 59 64 68 68 74 75 64 62 64 64 69 74 75 78 77 80 87 91 94 97 91 94 90 81 73 83 79 73 71 62 60 56 54 44 43 40 35 33 32
33 29 25 25 27 26 22 27 25 57 60 63 63 63 68 67 86 88 65 53 58 64 66 70 71 79 86 92 93 92 92 80 76 71 72 73 69 63 67 58 55 51 47 44 42 39 38 35 34
29 34 33 30 28 26 24 27 30 32 59 67 68 73 74 80 81 86 77 50 53 55 59 62 67 74 79 87 87 84 70 59 61 66 66 66 61 59 52 49 48 49 46 44 41 42 42 42 37
34 42 37 31 28 27 25 25 29 24 54 60 64 64 77 74 77 71 73 51 47 48 51 57 65 70 79 84 77 61 52 43 47 47 41 41 47 46 46 48 47 43 40 40 44 48 49 48 43
42 46 52 33 28 25 26 35 25 20 22 48 63 74 70 73 66 57 58 51 52 46 52 53 58 73 75 72 71 46 46 40 40 38 39 38 42 42 46 47 46 46 46 50 50 52 57 57 50
52 56 50 42 32 29 29 38 25 22 23 24 32 62 64 64 64 68 64 69 71 61 56 59 69 81 82 84 80 73 66 44 40 39 40 39 40 43 48 49 49 49 51 49 44 51 51 52 52
65 64 54 56 39 37 38 38 29 24 23 26 25 38 56 60 60 66 73 71 73 69 72 74 82 82 80 82 81 86 87 82 42 36 39 39 46 45 50 51 51 52 54 53 49 51 57 55 57
52 58 61 50 42 43 40 38 31 27 26 25 26 30 47 50 50 63 74 74 74 74 81 76 80 82 84 87 81 83 83 89 61 41 37 38 40 44 50 52 52 54 52 53 52 58 52 60 65
56 60 60 50 41 42 44 39 32 26 26 23 24 35 38 54 61 78 78 74 70 73 84 78 79 88 82 85 91 92 87 90 54 48 39 41 39 45 48 49 51 54 58 57 56 58 69 72 70
59 64 63 60 53 45 45 46 42 28 26 23 24 30 34 46 84 79 80 74 81 79 80 85 90 86 88 89 95 92 87 84 79 56 50 43 39 45 46 48 52 54 59 61 60 63 61 65 74
69 52 54 59 70 74 44 67 52 36 30 29 47 55 65 87 88 84 76 81 83 83 83 88 90 90 94 94 93 90 90 85 88 70 54 46 41 43 46 50 52 52 60 59 63 62 69 71 70
57 54 63 60 65 82 70 79 57 48 46 62 60 60 60 82 88 86 79 82 80 90 97 94 95 95 96 94 93 94 89 82 81 81 73 55 46 43 45 49 52 53 62 61 61 67 70 74 74
47 66 74 74 77 91 84 74 64 90 85 79 71 67 65 69 75 83 84 78 80 89 96 96 96 96 96 95 93 91 89 88 83 80 78 67 55 52 43 46 49 51 63 64 66 68 68 71 72
60 87 98 90 97 96 91 87 74 82 81 86 84 79 85 86 85 91 90 92 92 93 95 96 96 98 95 94 92 95 92 81 83 82 82 69 57 56 52 58 59 66 68 66 67 68 67 68 69
72 82 100 99 98 96 90 98 89 70 74 84 75 84 88 93 96 99 94 93 95 94 95 96 97 97 97 95 96 94 87 91 81 79 69 64 56 55 55 58 63 58 59 62 63 68 68 63 64
68 93 89 100 95 96 88 78 72 68 74 85 87 83 90 94 96 96 94 96 98 98 96 96 97 98 96 94 92 86 78 72 69 65 68 62 58 50 51 52 54 53 50 53 55 59 57 56 58
73 79 92 95 95 94 76 58 65 76 84 88 92 96 89 90 94 96 94 93 94 93 90 90 90 92 85 73 60 61 58 52 55 56 59 51 52 47 49 49 47 50 49 51 56 60 57 54 59
52 61 82 88 93 95 92 66 51 57 58 61 84 94 89 74 77 68 62 65 63 59 54 49 61 50 53 53 45 43 43 42 41 43 45 51 47 49 46 49 49 49 48 48 49 50 51 51 55
33 41 68 87 89 88 87 76 51 58 56 57 59 58 61 59 57 54 51 47 48 50 48 46 47 45 44 40 39 41 40 45 40 43 48 42 45 47 46 46 46 44 45 49 50 50 52 53 56

GFSSGP_sfc_rhum_105.txt.gz
RH
72 65 91 96 87 94 90 75 63 49 44 31 38 34 32 53 43 49 92 84 82 88 78 80 79 76 75 75 76 76 76 76 76 76 74 69 69 69 68 67 67 70 69 67 70 72 71 71 70
75 62 85 96 91 88 73 77 66 49 43 51 40 48 55 78 82 97 93 81 80 84 83 79 77 78 76 76 74 77 77 75 74 72 68 67 66 66 64 66 67 72 72 71 72 71 69 73 68
60 63 88 95 97 86 68 60 53 46 38 35 38 54 70 83 88 91 85 80 80 87 84 78 80 78 75 75 75 73 75 68 67 67 65 64 65 64 65 66 69 74 73 73 72 67 73 70 68
68 77 83 97 95 85 61 52 54 42 44 44 37 52 63 68 86 82 78 80 86 93 87 81 78 74 76 75 72 70 68 70 65 65 65 64 66 66 65 66 73 74 75 73 70 67 74 70 68
70 90 95 99 92 78 71 58 43 44 48 54 45 63 77 68 72 76 84 84 94 96 88 78 73 70 70 69 69 68 67 66 66 65 66 68 66 68 74 74 66 71 74 72 68 62 68 68 65
71 83 96 95 82 64 58 51 48 55 66 62 52 60 72 74 75 76 83 90 87 92 84 76 72 70 68 66 66 66 66 66 67 71 74 72 70 69 71 70 71 71 70 68 63 57 63 66 62
72 91 95 93 87 68 55 59 61 60 66 62 63 59 80 87 74 70 79 91 89 86 86 82 73 70 71 68 66 66 67 69 73 71 69 73 70 70 70 70 70 68 65 62 56 52 61 62 57
66 80 89 88 83 74 55 61 66 70 66 67 67 68 85 77 73 75 79 90 94 88 82 88 83 79 81 74 75 73 74 77 75 71 72 72 72 72 69 65 60 53 46 46 46 50 55 56 54
65 86 95 85 75 65 48 45 65 66 68 63 61 65 62 76 77 83 90 91 90 87 94 93 92 92 91 89 83 78 78 78 76 76 75 82 86 80 73 64 55 50 44 43 46 51 54 56 57
58 88 76 63 58 57 44 38 37 63 66 66 66 65 67 78 81 87 92 88 91 97 95 95 95 95 95 85 94 95 84 88 90 90 88 85 85 81 67 62 55 44 43 44 48 51 59 58 63
48 67 58 48 40 39 39 34 31 69 78 68 66 65 70 83 82 84 85 84 89 94 87 94 94 95 95 96 99 99 98 96 92 85 85 84 85 81 75 70 64 62 49 46 45 41 44 49 54
37 30 32 32 33 39 37 29 28 67 55 57 64 67 64 79 80 82 86 86 91 93 88 90 89 89 97 97 97 98 94 98 92 81 80 89 88 77 71 66 62 57 51 43 42 42 38 41 48
37 33 32 30 32 30 26 28 26 29 48 58 69 67 70 70 78 79 78 79 81 87 84 86 85 88 97 97 99 98 98 94 90 82 83 79 74 71 63 58 57 51 50 45 44 41 39 38 41
34 36 39 35 30 31 27 28 30 29 41 69 73 75 70 80 79 81 80 74 70 73 76 80 81 85 95 97 97 94 92 87 88 84 80 63 63 63 57 54 51 50 48 46 46 44 43 43 42
39 46 41 39 31 29 32 30 27 24 30 62 73 77 75 77 79 81 77 75 62 65 66 74 77 81 91 95 94 89 81 73 79 76 73 62 59 57 50 51 52 49 46 45 50 53 52 49 44
47 48 57 38 34 30 29 42 27 23 23 23 52 80 83 83 79 73 73 68 61 60 63 66 66 80 87 92 92 81 67 62 69 62 62 56 52 47 51 51 50 50 51 54 56 59 60 57 52
60 68 61 51 36 39 35 45 31 26 24 24 25 54 75 83 82 71 73 76 64 60 61 66 66 81 87 88 86 82 64 48 51 50 49 49 48 47 51 51 54 54 55 54 50 58 58 57 56
69 71 63 63 48 43 50 49 36 32 29 26 26 28 69 79 77 73 74 77 75 69 73 75 76 81 86 90 85 88 80 70 45 36 36 39 47 48 53 54 55 56 57 58 56 55 61 59 60
60 68 69 58 48 54 53 50 42 35 31 30 28 27 34 62 65 65 71 74 82 85 82 76 83 84 88 88 82 83 79 88 75 44 35 38 45 48 51 56 55 58 54 54 54 60 57 67 68
59 65 65 58 49 52 56 53 42 33 31 29 27 26 30 38 54 64 75 82 79 80 82 86 85 87 87 88 90 89 85 94 81 54 41 41 40 47 50 52 57 56 59 56 57 60 70 75 71
61 66 68 65 57 56 56 62 51 38 31 27 27 35 50 44 48 87 84 82 80 83 82 82 81 86 85 85 92 94 93 91 88 66 45 44 40 45 46 47 54 54 57 60 61 61 60 67 77
72 54 54 65 74 93 66 90 64 45 41 43 66 68 71 72 74 85 85 84 83 85 85 86 91 89 86 90 84 83 85 87 96 94 86 67 41 46 49 48 51 56 62 62 64 64 69 70 70
58 56 69 76 86 90 81 97 78 57 84 85 81 76 72 72 90 89 83 81 81 87 91 96 95 96 94 89 90 91 94 96 95 92 75 60 44 44 49 52 53 58 63 64 66 72 73 75 76
50 71 80 78 84 95 97 97 78 95 87 84 88 86 86 81 95 92 83 79 81 87 94 96 95 96 96 94 97 98 94 95 94 93 95 90 68 50 49 51 55 52 64 65 68 71 74 77 77
69 87 94 89 95 87 95 95 81 81 83 84 96 96 95 97 94 93 93 89 87 92 93 95 93 97 96 97 98 98 96 98 95 93 88 88 80 62 54 51 54 66 69 68 71 70 71 71 73
78 88 100 100 98 97 84 100 89 70 76 80 83 90 90 89 92 98 96 95 96 95 96 96 96 98 98 97 97 98 99 99 96 89 84 78 70 60 52 61 63 62 65 65 68 73 70 66 67
66 92 91 97 97 95 90 70 76 62 72 83 90 89 91 96 97 97 97 98 98 98 93 96 98 98 98 98 98 99 97 95 95 84 64 67 60 54 60 59 64 57 59 58 58 62 59 59 63
78 81 92 96 91 90 85 69 69 60 72 74 91 97 91 89 93 93 91 93 94 96 98 98 97 97 98 98 97 94 90 82 70 64 64 59 52 53 54 55 54 51 51 54 58 63 60 56 61
48 51 87 87 92 96 93 69 57 61 58 64 85 93 90 81 73 72 68 77 65 65 79 86 88 85 68 56 51 48 48 47 48 50 50 53 51 52 48 51 50 51 51 51 52 54 53 52 56
44 42 72 86 86 88 92 78 56 64 59 63 70 80 88 82 64 52 49 49 58 57 59 58 50 46 44 43 42 44 43 44 49 50 44 49 51 51 48 50 49 49 49 51 52 52 53 54 56

GFSSGP_sfc_rhum_111.txt.gz
RH
67 62 84 85 60 71 63 50 46 43 40 34 33 28 29 34 37 36 80 73 63 59 70 67 81 80 76 76 76 76 77 77 76 71 67 66 66 65 67 71 66 69 69 72 70 69 67 67 68
64 61 72 89 68 59 48 53 49 46 38 36 40 39 44 53 76 85 84 75 57 69 66 64 82 81 79 76 76 77 77 76 75 71 66 65 65 64 65 72 67 71 69 73 71 69 67 66 69
52 62 76 83 77 60 50 42 43 42 39 39 34 49 58 67 82 77 73 68 54 69 65 66 82 81 80 79 77 78 78 75 69 66 66 64 64 63 66 72 71 70 68 74 72 71 69 68 66
64 67 68 83 82 71 50 39 43 45 36 39 39 42 61 64 74 69 71 63 58 68 67 74 80 79 80 78 78 77 76 70 66 67 64 64 64 65 72 73 70 65 70 73 71 69 67 66 65
67 76 83 79 77 71 59 54 50 48 43 42 46 48 65 68 73 72 73 65 60 68 69 66 78 78 78 77 77 73 70 69 68 65 64 64 64 70 74 75 73 68 74 73 70 68 66 64 64
69 72 79 76 70 64 53 49 46 50 52 50 46 56 69 78 82 78 71 66 57 70 68 63 77 78 78 76 72 74 69 68 66 66 65 66 66 68 74 75 71 66 69 73 70 64 61 60 63
67 77 71 76 79 66 55 52 52 58 54 57 58 52 72 77 81 77 73 65 76 66 68 62 66 71 79 76 73 71 68 66 66 70 70 72 73 72 71 69 69 64 63 71 66 62 58 58 62
66 69 81 78 64 65 46 46 57 49 55 58 58 53 61 72 80 88 86 82 79 71 68 61 59 59 60 58 74 71 68 69 73 75 77 76 74 73 69 69 67 62 61 69 61 58 58 58 64
60 67 77 68 67 54 44 45 38 55 40 47 54 54 55 75 84 92 85 87 80 76 66 61 60 60 60 58 61 70 72 75 78 77 80 74 73 61 59 63 64 55 58 64 58 59 62 65 71
55 72 65 59 56 53 43 35 32 30 28 36 53 69 70 74 89 94 87 82 83 82 72 63 62 61 59 59 61 64 69 72 61 62 63 60 60 54 49 54 61 56 58 59 59 69 74 65 57
48 51 53 44 32 32 31 27 24 28 38 38 29 56 79 81 86 87 79 71 75 76 77 68 64 62 62 63 72 83 86 76 67 63 62 59 57 56 51 50 49 47 59 48 44 40 42 52 55
32 30 35 30 28 29 28 24 23 30 31 27 31 48 77 80 82 85 80 70 69 75 75 70 66 68 70 77 78 88 80 81 67 66 60 58 54 49 45 42 46 46 44 33 32 34 40 44 47
32 28 28 29 36 37 32 32 26 26 25 32 37 54 75 80 81 76 76 70 68 76 77 71 69 68 74 83 80 86 81 74 67 64 59 56 52 44 40 37 39 34 33 30 32 32 33 33 33
32 34 38 38 33 33 31 30 28 24 24 22 30 40 54 75 77 79 79 78 74 75 78 71 69 66 74 83 80 79 81 71 67 63 59 52 47 40 35 33 33 31 29 29 29 30 31 33 30
41 42 40 38 31 36 30 36 28 23 22 25 22 36 65 72 75 76 78 73 79 74 71 72 69 68 77 87 83 81 79 71 67 61 56 50 46 35 34 31 30 29 27 25 27 27 29 32 31
43 44 55 42 42 34 30 46 35 29 25 30 27 21 38 69 72 74 76 72 74 78 76 76 69 76 79 85 86 82 76 72 65 60 56 44 42 36 35 34 35 33 33 33 32 33 35 33 31
54 56 58 55 39 38 35 45 37 32 33 34 28 24 21 41 73 72 76 75 73 76 80 77 72 80 86 89 91 88 79 71 63 60 55 43 42 36 36 35 37 36 38 36 35 38 34 34 36
60 61 59 60 46 44 49 51 44 39 39 37 31 27 25 22 34 72 75 76 74 78 78 82 81 78 88 93 95 90 81 76 67 62 60 44 46 40 38 39 38 37 43 42 41 37 39 37 36
54 63 64 53 45 53 53 52 48 43 43 43 37 30 25 23 20 40 73 74 76 76 79 80 82 82 93 96 96 92 89 78 70 63 60 49 45 46 41 40 37 42 42 42 40 44 42 45 40
57 58 58 52 49 54 60 55 50 42 43 38 39 46 51 50 34 38 64 75 75 76 82 79 82 89 93 94 95 94 88 80 72 73 55 56 46 47 46 40 41 42 49 48 45 49 49 50 48
48 55 54 62 63 62 59 57 54 52 50 49 53 60 62 68 65 58 52 80 79 77 81 81 80 88 92 94 93 94 92 89 83 70 64 56 50 48 46 41 47 47 47 51 48 54 63 58 59
60 49 57 69 67 67 63 73 55 62 61 60 61 64 68 70 70 69 60 68 82 77 84 83 81 85 92 94 96 93 95 95 94 93 93 92 91 84 62 42 46 46 50 51 51 46 46 50 48
46 54 68 67 74 67 73 79 54 68 78 74 66 68 68 69 74 75 67 60 79 77 82 83 85 83 93 97 94 95 97 97 95 95 95 95 96 95 91 74 47 46 56 48 48 49 48 47 47
53 65 62 66 68 69 76 86 60 88 89 80 73 72 77 77 78 83 77 72 79 80 80 86 90 93 95 95 93 93 96 97 97 97 98 99 97 95 91 78 53 50 49 49 50 50 50 50 48
65 74 88 73 87 74 69 73 70 88 71 75 85 86 87 89 94 90 86 84 86 85 85 90 94 98 96 95 94 95 96 98 96 96 96 98 97 96 92 74 52 54 59 56 59 58 59 56 56
76 77 95 90 90 86 68 86 80 80 68 70 81 84 82 88 92 95 95 94 93 97 97 96 97 98 96 95 97 96 98 99 96 96 97 96 94 92 73 52 54 56 59 56 57 62 63 58 54
52 75 78 94 89 89 81 62 85 74 69 72 86 84 85 81 86 91 94 97 96 97 98 97 97 97 96 97 96 98 97 97 98 95 94 95 93 92 93 71 66 72 68 62 57 56 53 50 49
52 65 73 85 97 87 64 64 60 86 86 81 87 86 85 79 80 85 91 97 97 97 98 97 97 96 90 94 94 97 95 96 97 96 97 97 96 88 79 73 67 62 57 52 52 50 46 44 47
43 41 61 76 80 87 76 62 51 69 84 83 77 75 79 78 73 79 73 82 90 92 91 92 92 91 92 94 95 96 92 87 80 78 70 59 61 63 60 57 54 51 47 44 42 43 43 42 43
39 41 57 71 65 84 83 59 50 57 74 63 61 60 59 61 58 63 70 63 60 71 62 63 68 63 67 57 50 51 49 49 48 47 47 47 50 49 47 44 43 42 42 39 38 38 38 38 42

GFSSGP_sfc_rhum_114.txt.gz
RH
54 42 52 58 50 39 32 26 22 24 30 25 26 23 22 20 23 34 61 50 38 31 48 62 82 79 76 77 76 76 76 77 76 72 69 68 65 72 67 65 69 71 71 70 67 66 67 66 68
46 46 53 50 45 38 29 25 28 24 26 27 26 28 27 25 42 61 57 54 42 32 44 51 82 81 79 77 77 77 77 77 73 69 67 66 64 66 71 67 70 69 72 70 69 67 67 69 71
42 46 49 45 42 38 30 27 24 27 26 27 27 31 33 40 52 52 51 47 33 38 50 49 81 81 80 78 77 77 77 76 72 68 66 65 63 64 73 70 70 70 72 71 70 69 67 67 71
45 47 42 52 43 39 31 24 29 28 24 26 29 30 40 48 52 47 49 38 36 45 45 71 81 80 79 78 78 78 77 71 70 68 65 64 62 65 72 72 66 72 73 71 69 66 65 66 67
44 41 39 47 38 32 35 33 32 33 28 28 30 31 39 52 53 51 46 36 40 40 39 55 80 77 78 77 78 76 74 71 69 66 64 64 65 72 74 70 67 74 73 70 69 66 64 64 65
40 38 34 31 28 30 34 31 35 36 30 30 33 34 43 55 57 51 44 38 37 38 39 48 77 80 78 78 77 74 72 70 67 66 65 65 72 74 76 71 71 74 73 70 65 63 63 63 64
36 36 25 24 26 31 32 32 34 36 35 36 40 36 44 57 64 50 43 37 36 38 44 48 54 66 80 79 78 74 71 68 67 66 68 72 74 74 73 70 66 73 71 68 63 60 61 63 64
35 38 32 33 31 31 25 30 40 38 36 32 40 37 43 47 64 55 47 40 34 38 42 46 51 49 53 55 78 75 72 69 72 72 78 78 77 72 71 69 65 68 71 64 60 58 60 63 65
44 35 30 31 33 29 28 35 31 30 31 26 28 35 41 50 66 63 56 54 45 43 42 49 54 45 48 45 57 69 72 73 74 74 81 71 53 60 57 67 68 66 67 61 60 60 63 66 67
33 34 25 28 27 29 26 29 27 30 30 29 27 32 44 55 70 66 70 57 52 48 45 46 45 40 40 38 42 40 43 57 66 53 48 47 51 44 43 59 66 65 63 59 63 66 62 51 35
29 27 23 24 24 25 26 25 20 23 29 24 28 22 48 57 72 68 71 53 52 50 48 44 42 40 38 35 35 36 39 74 65 52 42 40 42 42 36 42 43 49 55 39 42 44 32 35 35
25 21 23 23 20 21 20 16 16 16 18 15 18 14 25 48 62 78 65 58 49 46 51 46 45 43 35 34 36 44 59 73 53 47 42 42 42 38 34 34 36 41 33 22 22 26 35 36 32
26 25 24 24 26 27 25 28 24 20 14 13 13 18 25 37 46 64 62 55 49 50 53 54 48 43 34 35 42 64 79 60 52 49 44 41 41 36 34 33 32 31 21 19 22 23 24 24 25
28 31 30 28 28 26 29 26 23 17 16 15 16 16 16 21 35 51 66 62 54 48 58 56 52 43 33 38 57 69 75 66 58 50 44 39 36 33 33 30 27 23 20 20 20 20 21 21 20
32 34 27 28 26 30 25 29 27 17 19 18 15 16 17 25 26 34 54 60 53 52 51 53 50 42 35 41 56 66 78 66 56 48 39 37 34 30 28 25 21 19 19 18 18 19 20 23 22
33 32 37 28 31 27 28 34 23 21 22 23 20 16 19 17 33 38 47 62 53 60 52 52 53 48 40 47 63 63 68 67 55 43 38 36 33 27 23 22 20 20 20 22 22 23 23 24 24
34 36 37 36 29 34 34 38 27 25 27 28 23 19 17 18 19 42 51 58 53 63 76 65 58 52 47 68 77 71 62 62 51 40 38 34 30 24 22 22 24 23 24 24 24 25 24 25 24
36 35 35 37 31 33 38 39 33 31 32 33 28 22 20 18 15 21 51 66 61 63 67 67 64 58 55 86 86 88 71 62 49 40 39 28 28 27 25 25 25 24 28 27 26 27 26 24 25
35 37 36 33 32 42 40 41 36 37 32 31 30 26 22 20 17 17 31 56 65 73 74 71 71 61 61 94 96 94 87 69 56 46 44 32 30 36 48 30 30 29 30 28 28 27 32 32 26
29 32 33 35 40 43 42 40 36 39 42 41 41 39 36 33 22 24 28 47 63 66 77 75 76 68 66 84 94 92 89 79 64 58 52 41 33 34 33 42 36 30 31 33 31 36 33 33 31
26 32 38 44 41 44 42 39 40 34 37 37 40 42 38 40 37 31 35 38 53 64 70 70 72 69 74 83 93 95 93 90 80 59 58 53 36 35 46 45 37 31 35 38 39 39 41 38 41
33 32 44 50 42 43 41 42 34 38 50 50 45 48 48 46 40 36 40 41 47 63 73 70 73 71 75 87 92 90 93 93 87 92 92 93 82 78 72 61 48 41 48 48 45 43 41 42 38
30 46 52 47 43 47 46 59 42 50 76 64 58 62 58 55 49 41 35 39 40 54 68 74 85 86 94 96 94 95 97 97 94 96 96 97 97 93 90 86 83 76 64 47 42 36 34 42 37
35 45 48 47 44 40 54 62 45 85 89 80 71 69 72 77 68 54 49 46 43 56 71 83 81 90 97 94 93 96 96 97 98 98 98 98 98 98 89 88 91 86 74 53 50 44 39 36 35
34 42 74 54 67 52 47 52 59 71 73 79 89 81 80 78 86 82 59 54 58 69 78 81 90 98 96 96 96 96 97 96 95 96 96 98 98 97 93 92 92 82 59 52 52 49 47 40 40
43 53 83 99 69 80 53 86 66 68 60 73 75 80 82 82 87 93 90 78 79 81 92 96 97 97 96 96 98 97 97 97 97 94 95 95 95 94 88 85 77 52 46 51 51 55 58 51 48
33 45 61 88 74 71 61 32 53 58 49 62 71 78 84 85 90 95 95 93 96 96 96 96 97 96 94 94 93 95 94 88 93 91 91 92 91 94 91 77 63 55 56 57 62 53 50 46 45
35 43 50 60 96 70 32 31 56 66 54 52 59 72 79 83 87 91 95 96 96 96 96 94 90 90 92 90 88 91 84 86 89 94 97 95 94 95 93 90 78 76 79 73 70 66 48 44 43
29 28 36 51 56 57 40 32 34 44 53 52 48 63 73 77 82 84 86 89 86 82 87 91 89 87 92 93 92 89 86 88 91 91 84 91 94 89 88 88 88 76 59 51 48 42 40 38 38
29 30 29 41 42 53 51 32 32 37 46 45 46 52 58 62 66 66 67 69 78 83 81 80 75 74 69 59 58 57 54 52 51 50 52 49 52 53 55 53 47 44 41 38 35 34 32 34 35

GFSSGP_sfc_rhum_117.txt.gz
RH
55 36 38 54 53 38 32 25 17 19 21 19 20 22 20 17 25 46 50 37 31 30 47 63 82 80 78 76 76 74 76 76 74 71 69 67 73 67 66 69 74 72 69 67 67 67 67 67 70
38 34 45 46 50 36 29 19 22 17 19 20 21 23 23 22 28 50 47 40 29 32 45 54 82 81 79 77 77 77 77 77 74 71 68 65 70 69 67 70 72 71 70 69 68 68 69 71 72
41 34 47 44 42 38 26 19 21 18 17 20 23 23 25 34 38 39 38 36 25 34 42 54 82 82 80 79 77 78 77 76 72 70 67 64 63 72 69 70 72 72 69 70 68 68 69 71 73
33 37 38 42 40 28 26 20 19 22 18 18 21 25 28 36 38 36 39 33 26 34 37 77 82 81 80 79 77 78 77 75 70 69 66 64 62 71 73 70 74 72 71 68 67 66 67 68 71
31 29 35 32 34 25 19 22 23 26 22 20 20 26 30 42 41 40 38 28 30 38 41 56 80 78 80 78 77 78 76 72 70 67 65 63 64 71 72 68 75 73 71 69 67 64 64 65 68
33 24 30 26 21 18 16 20 21 24 23 21 25 25 39 43 43 40 33 29 32 34 41 50 77 81 80 78 78 77 73 72 69 66 65 66 72 75 71 73 75 72 70 67 66 64 64 63 66
36 30 28 22 19 15 14 18 20 24 23 27 27 32 43 45 44 38 31 28 32 31 33 44 53 67 82 81 79 78 73 71 68 66 67 73 76 76 72 74 76 73 68 65 63 64 63 64 64
34 28 31 26 21 22 16 17 22 27 27 26 28 30 34 45 45 37 33 30 30 30 34 47 53 52 57 63 78 78 75 70 71 72 74 80 77 76 73 72 74 71 67 63 60 62 63 64 63
28 34 27 22 21 22 17 23 20 22 28 23 23 27 34 59 50 43 38 33 31 31 34 44 53 49 51 54 64 74 75 74 75 74 79 76 60 59 60 70 73 67 64 62 60 63 63 65 61
30 31 25 20 21 22 18 19 20 24 24 22 20 21 32 47 53 55 49 41 33 34 34 42 51 49 43 40 53 46 48 48 55 56 54 51 49 47 50 64 74 65 62 61 63 62 63 51 36
19 27 18 17 16 17 19 20 17 19 22 19 22 21 30 37 51 51 51 44 42 52 44 48 48 49 38 34 38 34 35 43 69 58 45 39 41 42 43 49 55 53 57 44 44 51 34 30 32
24 17 19 21 20 21 19 16 16 15 16 12 14 15 18 25 39 46 48 46 45 76 66 52 48 42 31 34 32 29 31 56 83 65 41 44 39 36 37 38 42 44 30 25 25 30 34 32 29
25 21 22 22 23 24 23 24 22 20 15 11 10 10 12 14 30 35 44 47 43 51 52 46 44 34 32 31 30 30 57 71 83 70 44 39 38 33 32 32 35 34 23 19 23 28 28 27 26
24 25 25 22 23 23 26 25 22 19 13 14 12 12 10 14 19 27 39 49 53 55 60 45 40 42 32 30 30 43 60 75 75 66 47 36 34 31 32 32 29 26 18 19 20 21 21 23 22
25 29 25 23 22 24 24 26 24 18 15 16 14 11 12 12 13 15 26 41 46 46 50 48 46 35 36 30 34 66 66 62 70 56 42 34 33 30 30 28 24 19 17 17 18 18 19 21 21
27 27 29 24 25 25 26 37 22 18 19 21 18 16 15 14 12 15 18 27 40 47 47 55 51 38 38 31 54 72 67 74 63 50 39 32 31 29 28 25 20 19 19 21 21 22 24 24 23
24 27 29 29 23 27 28 35 26 22 25 27 24 20 16 14 13 13 21 25 36 52 59 62 50 44 43 34 58 78 64 80 65 46 37 34 31 26 24 22 22 20 24 23 25 25 24 25 25
29 30 29 29 24 27 33 33 29 28 29 29 25 23 20 16 14 12 22 33 38 60 78 71 62 51 49 53 62 86 83 79 67 42 38 33 29 23 22 24 24 22 29 28 29 25 25 24 25
25 25 27 26 27 36 33 34 32 31 31 34 35 30 23 18 15 14 15 35 47 73 93 89 86 68 74 66 81 89 92 80 56 44 36 30 26 23 26 27 25 29 32 30 30 28 28 29 24
21 24 27 27 28 32 31 34 30 28 36 36 33 33 32 29 24 18 18 23 39 57 85 95 85 71 66 70 82 86 95 83 58 50 45 37 31 30 32 36 33 39 36 33 32 37 37 36 30
24 27 31 36 30 30 30 37 32 34 37 44 44 43 35 35 29 24 23 24 34 53 72 77 90 68 69 73 87 93 95 94 76 59 55 45 36 36 34 32 33 33 38 39 40 43 48 52 43
30 28 42 42 37 34 28 40 34 39 48 51 50 56 50 46 39 30 27 30 30 42 63 75 83 77 72 82 91 93 96 97 96 91 79 69 46 44 44 48 50 51 57 52 54 50 56 55 57
27 30 43 40 37 34 33 44 35 40 65 64 61 68 64 61 62 46 28 27 28 36 45 68 92 97 94 92 93 94 96 96 93 95 94 94 82 76 73 71 73 72 75 69 61 55 51 56 53
26 27 40 39 37 44 35 49 38 63 78 76 78 76 74 73 75 66 35 28 31 40 62 83 92 96 97 94 93 94 97 98 98 98 98 98 97 94 88 84 89 91 86 77 66 57 55 50 47
26 34 69 53 57 42 36 47 56 56 63 81 89 83 82 82 86 83 40 38 39 61 77 88 95 99 96 96 95 96 98 98 96 97 97 98 98 98 98 93 94 95 93 84 67 60 57 50 51
34 40 74 99 62 67 40 67 56 48 52 61 78 78 82 89 91 95 86 75 71 78 94 97 97 98 97 96 96 97 97 98 97 95 92 94 96 98 95 94 92 85 75 62 58 63 64 56 57
30 34 45 75 65 72 46 32 42 39 39 43 68 81 88 90 93 95 96 97 96 96 97 96 96 97 94 94 96 94 95 94 93 90 86 89 95 93 91 81 76 68 58 57 57 54 49 50 48
27 30 45 47 94 59 26 25 30 38 45 44 63 82 84 89 90 94 96 94 96 96 96 94 91 92 91 89 88 90 89 92 93 92 93 90 94 95 92 83 77 78 76 72 64 71 65 61 59
25 24 25 40 41 50 37 32 26 32 42 44 56 70 76 88 87 88 89 92 91 86 79 84 83 91 90 86 87 86 87 89 90 93 95 96 95 93 91 90 91 90 87 81 70 61 54 52 50
24 22 22 31 35 34 39 35 23 30 37 41 54 55 62 66 83 81 80 85 88 87 75 70 69 67 64 62 54 52 54 69 63 54 59 68 78 84 88 88 88 83 82 68 53 46 37 37 38

GFSSGP_sfc_rhum_123.txt.gz
RH
61 54 67 81 90 96 88 60 53 35 32 35 32 32 36 55 59 67 69 60 76 83 79 78 84 82 80 77 77 77 77 77 76 72 69 67 70 77 73 71 70 68 67 68 68 68 71 71 72
61 54 71 87 96 93 81 56 47 31 26 27 28 31 34 65 59 70 65 60 69 77 80 78 85 83 81 80 81 78 77 75 73 72 71 68 68 76 72 71 70 70 69 69 70 70 72 73 72
57 50 78 94 95 92 79 51 41 27 24 27 27 31 50 63 58 59 56 55 66 77 78 81 85 83 82 81 81 79 77 75 71 69 73 69 70 74 72 69 69 69 70 70 72 74 74 73 75
58 61 66 86 87 65 57 44 34 26 24 23 24 43 53 55 55 55 40 55 71 77 77 85 84 83 82 81 80 79 78 75 72 67 69 71 72 72 73 70 70 70 69 67 69 73 73 72 71
55 65 80 78 66 48 36 31 37 32 36 40 41 38 66 60 52 46 35 51 71 72 80 83 85 83 82 81 80 79 79 76 72 68 65 71 74 76 75 71 68 70 68 65 65 69 71 69 64
58 59 65 73 57 38 31 25 24 44 50 38 62 72 78 79 86 80 39 50 57 80 80 79 84 84 84 82 80 80 77 75 72 68 68 70 75 76 76 72 68 70 68 64 63 65 69 64 70
65 71 73 60 48 38 28 22 29 44 54 52 63 68 85 83 87 84 78 72 73 77 80 82 82 82 84 83 82 81 78 74 71 67 69 78 76 77 78 72 71 70 68 65 62 61 65 62 69
56 65 63 55 46 42 28 24 25 36 50 46 52 79 76 79 78 87 82 73 78 78 80 90 87 83 85 84 83 82 79 75 71 74 80 82 81 80 77 72 70 68 66 64 61 59 61 62 63
43 63 69 52 38 37 24 25 24 25 28 34 42 50 62 78 75 85 86 85 86 85 84 88 89 90 91 86 79 81 80 77 77 84 86 84 86 85 81 76 70 66 65 62 59 59 62 61 66
52 66 54 33 27 30 26 24 23 20 22 25 32 73 72 77 71 75 83 95 92 87 81 82 83 87 87 72 84 88 76 86 92 90 87 90 86 83 75 76 71 66 61 58 56 59 61 62 69
36 45 33 27 29 30 31 30 28 30 32 27 24 46 73 72 70 67 73 86 87 89 83 71 80 83 82 78 82 80 81 88 93 90 90 79 77 83 80 82 85 84 70 73 71 74 74 67 63
39 28 30 30 31 31 32 30 32 32 33 28 25 21 40 76 77 78 84 81 66 92 94 84 79 81 78 85 76 75 73 81 97 82 86 72 74 84 84 80 88 88 83 87 84 86 80 66 54
39 35 30 30 31 32 30 35 36 33 29 25 22 20 21 20 30 52 70 77 78 85 88 93 92 92 89 88 72 67 65 76 84 92 74 61 69 74 82 84 83 83 71 67 64 67 56 49 49
34 34 33 32 31 31 34 35 34 28 27 25 21 20 20 19 17 17 60 84 83 83 83 84 89 95 91 90 62 56 66 84 93 94 68 51 60 64 70 76 75 60 47 51 54 50 46 45 42
32 37 38 36 31 35 32 39 40 33 29 34 34 34 31 28 20 18 24 66 64 82 82 87 88 91 96 82 76 69 75 86 92 83 74 50 60 60 62 60 41 37 41 42 41 40 41 41 39
43 44 51 33 33 36 35 50 39 36 35 38 38 41 36 34 30 20 16 27 65 80 89 88 90 86 88 86 78 79 87 84 92 86 62 49 53 54 51 44 40 39 39 43 43 45 45 47 44
38 46 38 34 34 36 41 51 40 36 39 46 48 48 46 44 37 36 29 19 57 78 84 79 83 86 90 76 80 80 84 88 91 77 54 48 51 52 43 42 42 41 47 48 43 49 46 48 48
44 43 34 37 38 40 47 49 51 50 52 59 60 57 57 53 50 45 40 25 54 81 81 84 83 86 94 92 88 93 93 97 91 66 60 47 52 47 43 44 42 47 50 48 46 45 48 50 46
33 36 37 38 38 45 46 50 54 53 55 59 62 67 62 60 54 51 48 50 88 90 92 91 94 96 94 97 97 97 96 97 93 54 58 49 45 42 44 45 46 49 47 45 42 46 43 50 50
32 42 47 48 42 43 44 55 53 58 61 62 62 69 73 68 63 60 56 56 50 91 90 90 97 97 98 98 97 99 98 98 94 62 50 47 41 43 44 45 48 46 52 44 44 46 58 58 56
36 45 49 56 50 43 44 60 64 61 60 59 63 70 75 74 71 68 63 66 65 90 93 94 98 97 97 97 98 99 98 97 89 64 67 59 45 48 48 48 50 47 53 49 52 50 50 59 65
41 37 39 44 59 64 44 70 70 56 59 67 82 85 70 75 75 71 70 71 72 74 97 96 97 97 95 97 98 98 99 94 96 91 83 81 66 63 56 56 58 62 64 58 60 58 59 56 55
36 36 39 46 59 70 51 72 78 67 73 71 85 78 77 78 80 85 83 76 74 73 97 97 96 96 95 86 91 99 97 97 94 92 89 92 91 82 77 74 70 64 62 54 50 53 59 61 64
31 42 58 60 67 83 53 68 78 83 78 87 84 82 84 86 87 83 84 83 85 98 96 96 96 97 96 94 91 97 98 99 97 96 94 95 96 96 91 88 90 89 79 69 64 62 56 57 56
40 63 88 74 85 82 58 73 79 68 77 94 88 90 89 90 92 93 94 85 97 96 95 93 96 97 95 94 95 94 96 99 99 99 99 97 96 97 96 93 93 94 93 88 86 82 74 68 65
44 61 87 71 96 87 67 81 74 62 85 88 78 87 88 91 92 97 97 94 92 95 95 92 94 98 96 96 98 98 98 99 98 98 98 97 96 96 92 92 91 91 89 89 90 91 87 73 69
41 54 60 84 87 94 84 64 62 60 76 77 84 88 94 92 94 96 95 97 97 97 98 97 97 97 96 97 97 97 96 95 97 96 96 97 94 90 88 88 91 92 90 88 87 84 75 68 66
40 44 60 88 78 81 63 58 56 73 77 76 91 92 95 92 94 94 95 96 96 96 96 96 95 97 97 97 96 96 95 93 94 95 96 97 97 95 94 93 90 89 87 81 74 76 69 65 66
46 47 44 52 70 76 78 63 52 72 78 80 91 82 92 93 94 95 94 94 93 93 92 92 92 93 92 91 91 92 93 94 95 97 98 97 94 92 88 86 85 83 81 79 75 71 61 58 54
34 35 33 62 54 59 65 64 56 64 73 75 84 75 80 90 91 89 84 83 82 88 86 78 69 65 71 70 64 62 65 72 80 91 92 90 90 84 83 84 85 85 85 84 82 73 58 55 53